This is the latest recevied weather packets stored in our database for station/object N8AMF. If no packets are shown the sender has not sent any weather packets the latest 10 day(s).
| Time | Temp. | Humidity | Pressure | Rain* | Wind** | Luminosity | Snow |
|---|---|---|---|---|---|---|---|
| 1777406683 | 20.56° C | 63% | 1010.9 hPa | 0 mm | - | 294 W/m² | - |
| 1777406379 | 20.56° C | 61% | 1011 hPa | 0 mm | - | 282 W/m² | - |
| 1777406078 | 20.56° C | 61% | 1010.9 hPa | 0 mm | - | 948 W/m² | - |
| 1777405775 | 20° C | 62% | 1011 hPa | 0 mm | - | 1054 W/m² | - |
| 1777405471 | 20° C | 62% | 1011 hPa | 0 mm | - | 588 W/m² | - |
| 1777405169 | 20.56° C | 62% | 1011 hPa | 0 mm | - | 1081 W/m² | - |
| 1777404866 | 20.56° C | 62% | 1010.9 hPa | 0 mm | - | 1066 W/m² | - |
| 1777404564 | 20.56° C | 61% | 1011.2 hPa | 0 mm | - | 1060 W/m² | - |
| 1777404260 | 21.11° C | 61% | 1011 hPa | 0 mm | - | 331 W/m² | - |
| 1777403956 | 21.11° C | 61% | 1010.8 hPa | 0 mm | - | 994 W/m² | - |
| 1777403656 | 20° C | 62% | 1011.1 hPa | 0 mm | - | 304 W/m² | - |
| 1777403350 | 20.56° C | 61% | 1011.2 hPa | 0 mm | - | 276 W/m² | - |
| 1777403050 | 20° C | 63% | 1011.1 hPa | 0 mm | - | 635 W/m² | - |
| 1777402746 | 20° C | 62% | 1011.1 hPa | 0 mm | - | 328 W/m² | - |
| 1777402441 | 20.56° C | 61% | 1011.1 hPa | 0 mm | - | 437 W/m² | - |
| 1777402139 | 20.56° C | 63% | 1011 hPa | 0 mm | - | 948 W/m² | - |
| 1777401835 | 21.11° C | 61% | 1010.8 hPa | 0 mm | - | 330 W/m² | - |
| 1777401529 | 21.11° C | 61% | 1010.9 hPa | 0 mm | - | 431 W/m² | - |
| 1777401224 | 21.11° C | 62% | 1010.7 hPa | 0 mm | - | 376 W/m² | - |
| 1777400920 | 21.67° C | 61% | 1010.9 hPa | 0 mm | - | 1054 W/m² | - |
| 1777400617 | 21.11° C | 60% | 1010.7 hPa | 0 mm | - | 358 W/m² | - |
| 1777400315 | 21.11° C | 60% | 1010.7 hPa | 0 mm | - | 343 W/m² | - |
| 1777400010 | 21.67° C | 63% | 1010.6 hPa | 0 mm | - | 504 W/m² | - |
| 1777399708 | 21.67° C | 62% | 1010.7 hPa | 0 mm | - | 319 W/m² | - |
| 1777399404 | 21.67° C | 64% | 1010.6 hPa | 0 mm | - | 1263 W/m² | - |
* Rain latest hour (hover to see other rain measurements)
** Current wind speed in m/s (hover to see current wind gust speed)